Zurück zum Katalog

DELTA 1 DEB

LostUNKNOWN
NORAD 28667·DEBRIS·🇺🇸 United States

Gestartet Jul 4, 1968 von Vandenberg Space Force Base

Loading…

Nächste Überflüge (nächste 24 Stunden)

TLE

VeraltetSource: Space-Track

Epoche: Mar 22, 2022, 01:42 UTC

1 28667U 68055Q   22081.07123979  .00015879  00000-0  15178-1 0  9997
2 28667 120.5229 213.3137 1741668 211.8085 136.4934 11.14286960 30966

Verfolge DELTA 1 DEB in Echtzeit mit AllMySat

Download on the App Store